Regional Weather Roundup
Issued by NWS Sioux Falls, SD

Home | Current Version | Previous Version | Text Only | Print | Product List | Glossary Off
Versions: 1 2 3 4 5 6 7 8 9 10 11 12 13 14 15 16 17 18 19 20 21 22 23 24 25 26 27 28 29 30 31 32 33 34 35 36 37 38 39 40 41 42 43 44 45 46 47 48 49 50

000
ASUS43 KFSD 172210
RWRFSD

WEATHER ROUNDUP FOR SE SOUTH DAKOTA/SW MINNESOTA/NW IOWA
NATIONAL WEATHER SERVICE SIOUX FALLS SD
400 PM CST SUN DEC 17 2017

NOTE: "FAIR" INDICATES FEW OR NO CLOUDS BELOW 12,000 FEET WITH NO
SIGNIFICANT WEATHER AND OR OBSTRUCTIONS TO VISIBILITY.


SDZ038>040-050-052>070-172300-
SOUTHEAST SOUTH DAKOTA

CITY           SKY/WX    TMP DP  RH WIND       PRES   REMARKS
BROOKINGS      CLOUDY    37  29  72 W5        29.93S
CHAMBERLAIN    CLOUDY    42  33  72 S5        29.91F
HURON          CLOUDY    41  32  70 MISG      29.92F
MADISON        MOCLDY    36  28  75 W5        29.93S
MITCHELL       CLOUDY    42  29  59 W3        29.95F
SIOUX FALLS    MOCLDY    40  30  67 CALM      29.94F
WINNER         CLOUDY    42  30  62 S8        29.91F
$$

MNZ071-072-080-081-089-090-097-098-172300-
SOUTHWEST MINNESOTA

CITY           SKY/WX    TMP DP  RH WIND       PRES   REMARKS
FAIRMONT       CLOUDY    31  24  75 NE3       29.96S
JACKSON        CLEAR     32  23  69 CALM      29.94S
LUVERNE        MOCLDY    36  27  69 CALM      29.94F
MARSHALL       CLOUDY    33  27  78 CALM      29.95F
MONTEVIDEO     PTCLDY    30  27  86 CALM      29.95F
PIPESTONE      CLOUDY    36  28  75 NW3       29.92S
REDWOOD FALLS  CLOUDY    30  24  78 E3        29.96F HAZE
WINDOM           N/A     32  18  55 CALM      29.94S
WORTHINGTON    CLEAR     34  28  79 CALM      29.94F
$$

IAZ001>003-012>014-020>022-031-032-NEZ013-014-SDZ071-172300-
NORTHWEST IOWA

CITY           SKY/WX    TMP DP  RH WIND       PRES   REMARKS
CHEROKEE       CLOUDY    33  28  82 N5        29.96S HAZE    WCI  29
ESTHERVILLE    CLOUDY    31  26  82 CALM      29.94S
LE MARS        CLOUDY    34  28  80 N5        29.95F WCI  30
ORANGE CITY    CLOUDY    34  30  86 N3        29.95S
SHELDON        MOCLDY    32  28  86 CALM      29.93F
SIOUX CITY     CLOUDY    35  28  75 N6        29.96F
SPENCER        CLOUDY    33  27  78 N3        29.95S
STORM LAKE     CLOUDY    32  27  80 NE3       29.95R
$$

ABBREVIATIONS USED IN REMARKS
   TC - TEMPERATURE IN CELSIUS
  WCI - WIND CHILL INDEX
   HX - HEAT INDEX
  VSB - VISIBILITY





USA.gov is the U.S. government's official web portal to all federal, state and local government web resources and services.